TimeEDT,TemperatureF,Dew PointF,Humidity,Sea Level PressureIn,VisibilityMPH,Wind Direction,Wind SpeedMPH,Gust SpeedMPH,PrecipitationIn,Events,Conditions,WindDirDegrees,DateUTC
12:15 AM,64.4,60.8,88,30.01,10.0,ENE,3.5,-,N/A,,Clear,70,2012-10-26 04:15:00
12:35 AM,64.4,60.8,88,30.01,10.0,ENE,3.5,-,N/A,,Clear,70,2012-10-26 04:35:00
12:55 AM,62.6,59.0,88,30.01,10.0,NE,3.5,-,N/A,,Clear,50,2012-10-26 04:55:00
1:15 AM,62.6,59.0,88,30.02,10.0,NE,3.5,-,N/A,,Clear,50,2012-10-26 05:15:00
1:35 AM,60.8,59.0,94,30.01,10.0,NE,3.5,-,N/A,,Clear,40,2012-10-26 05:35:00
1:55 AM,60.8,59.0,94,30.01,10.0,NNE,4.6,-,N/A,,Clear,30,2012-10-26 05:55:00
2:15 AM,60.8,59.0,94,30.00,10.0,NNE,4.6,-,N/A,,Clear,30,2012-10-26 06:15:00
2:35 AM,60.8,59.0,94,30.00,10.0,NE,6.9,-,N/A,,Clear,50,2012-10-26 06:35:00
2:55 AM,60.8,59.0,94,30.00,10.0,NNE,5.8,-,N/A,,Clear,30,2012-10-26 06:55:00
3:35 AM,60.8,60.8,100,29.99,7.0,NNE,4.6,-,N/A,,Clear,20,2012-10-26 07:35:00
3:55 AM,60.8,60.8,100,29.99,7.0,NE,5.8,-,N/A,,Clear,40,2012-10-26 07:55:00
4:15 AM,59.0,59.0,100,29.98,7.0,NE,5.8,-,N/A,,Clear,40,2012-10-26 08:15:00
4:35 AM,60.8,60.8,100,29.99,7.0,North,4.6,-,N/A,,Clear,10,2012-10-26 08:35:00
4:55 AM,59.0,59.0,100,29.99,7.0,NE,4.6,-,N/A,,Clear,40,2012-10-26 08:55:00
5:15 AM,60.8,60.8,100,29.99,7.0,NNE,4.6,-,N/A,,Clear,30,2012-10-26 09:15:00
5:35 AM,60.8,60.8,100,29.99,7.0,NNE,4.6,-,N/A,,Clear,20,2012-10-26 09:35:00
5:55 AM,60.8,60.8,100,29.99,10.0,NNE,5.8,-,N/A,,Clear,20,2012-10-26 09:55:00
6:15 AM,60.8,60.8,100,29.99,10.0,North,5.8,-,N/A,,Clear,10,2012-10-26 10:15:00
6:35 AM,60.8,60.8,100,29.99,7.0,NNE,6.9,-,N/A,,Clear,30,2012-10-26 10:35:00
6:55 AM,60.8,60.8,100,29.99,7.0,NNE,5.8,-,N/A,,Clear,30,2012-10-26 10:55:00
7:15 AM,60.8,60.8,100,29.99,7.0,NNE,5.8,-,N/A,,Clear,30,2012-10-26 11:15:00
7:35 AM,59.0,59.0,100,29.99,7.0,NE,4.6,-,N/A,,Clear,40,2012-10-26 11:35:00
7:55 AM,59.0,59.0,100,30.00,4.0,NE,5.8,-,N/A,,Clear,40,2012-10-26 11:55:00
8:15 AM,59.0,59.0,100,30.00,3.0,NE,5.8,-,N/A,,Clear,40,2012-10-26 12:15:00
8:35 AM,60.8,60.8,100,30.01,5.0,NE,8.1,-,N/A,,Scattered Clouds,40,2012-10-26 12:35:00
8:55 AM,62.6,62.6,100,30.02,5.0,NE,6.9,-,N/A,,Mostly Cloudy,40,2012-10-26 12:55:00
9:55 AM,62.6,62.6,100,30.04,4.0,NE,9.2,-,N/A,,Overcast,40,2012-10-26 13:55:00
10:35 AM,64.4,62.6,94,30.04,7.0,NE,9.2,-,N/A,,Overcast,50,2012-10-26 14:35:00
10:55 AM,68.0,62.6,83,30.04,10.0,NE,8.1,-,N/A,,Overcast,50,2012-10-26 14:55:00
11:15 AM,69.8,64.4,83,30.04,10.0,ENE,6.9,-,N/A,,Mostly Cloudy,60,2012-10-26 15:15:00
11:35 AM,71.6,64.4,78,30.03,10.0,NE,9.2,-,N/A,,Mostly Cloudy,50,2012-10-26 15:35:00
11:55 AM,73.4,64.4,73,30.03,10.0,North,9.2,-,N/A,,Mostly Cloudy,10,2012-10-26 15:55:00
12:15 PM,75.2,62.6,65,30.02,10.0,ENE,6.9,17.3,N/A,,Scattered Clouds,60,2012-10-26 16:15:00
12:35 PM,77.0,62.6,61,30.01,10.0,ENE,6.9,-,N/A,,Clear,60,2012-10-26 16:35:00
12:55 PM,77.0,62.6,61,30.00,10.0,ENE,8.1,17.3,N/A,,Scattered Clouds,70,2012-10-26 16:55:00
1:15 PM,78.8,60.8,54,29.99,10.0,NE,15.0,18.4,N/A,,Scattered Clouds,40,2012-10-26 17:15:00
1:35 PM,78.8,60.8,54,29.97,10.0,ENE,11.5,18.4,N/A,,Mostly Cloudy,70,2012-10-26 17:35:00
1:55 PM,78.8,59.0,51,29.96,10.0,NE,9.2,-,N/A,,Mostly Cloudy,40,2012-10-26 17:55:00
2:15 PM,80.6,59.0,48,29.95,10.0,NE,10.4,18.4,N/A,,Scattered Clouds,40,2012-10-26 18:15:00
2:35 PM,80.6,59.0,48,29.94,10.0,ENE,10.4,17.3,N/A,,Clear,70,2012-10-26 18:35:00
2:55 PM,80.6,57.2,45,29.92,10.0,NE,12.7,18.4,N/A,,Clear,50,2012-10-26 18:55:00
3:15 PM,80.6,55.4,42,29.91,10.0,NE,12.7,20.7,N/A,,Clear,40,2012-10-26 19:15:00
3:35 PM,82.4,55.4,39,29.91,10.0,NE,17.3,-,N/A,,Clear,50,2012-10-26 19:35:00
3:55 PM,82.4,55.4,39,29.90,10.0,NNE,11.5,-,N/A,,Clear,30,2012-10-26 19:55:00
4:15 PM,82.4,53.6,37,29.90,10.0,NNE,9.2,-,N/A,,Clear,30,2012-10-26 20:15:00
4:35 PM,82.4,51.8,35,29.90,10.0,NNE,12.7,-,N/A,,Clear,20,2012-10-26 20:35:00
4:55 PM,82.4,51.8,35,29.90,10.0,ENE,12.7,-,N/A,,Clear,60,2012-10-26 20:55:00
5:15 PM,80.6,50.0,34,29.90,10.0,NNE,10.4,13.8,N/A,,Clear,20,2012-10-26 21:15:00
5:35 PM,80.6,50.0,34,29.89,10.0,ENE,10.4,-,N/A,,Clear,60,2012-10-26 21:35:00
5:55 PM,80.6,51.8,37,29.89,10.0,NE,10.4,-,N/A,,Clear,40,2012-10-26 21:55:00
6:15 PM,78.8,51.8,39,29.89,10.0,NNE,6.9,-,N/A,,Clear,30,2012-10-26 22:15:00
6:35 PM,77.0,51.8,41,29.89,10.0,NNE,5.8,-,N/A,,Clear,20,2012-10-26 22:35:00
6:55 PM,77.0,53.6,44,29.89,10.0,North,4.6,-,N/A,,Clear,10,2012-10-26 22:55:00
7:15 PM,71.6,53.6,53,29.90,10.0,North,3.5,-,N/A,,Clear,360,2012-10-26 23:15:00
7:35 PM,69.8,55.4,60,29.90,10.0,North,4.6,-,N/A,,Clear,10,2012-10-26 23:35:00
7:55 PM,69.8,55.4,60,29.90,10.0,North,4.6,-,N/A,,Clear,360,2012-10-26 23:55:00
8:15 PM,71.6,55.4,57,29.91,10.0,North,5.8,-,N/A,,Clear,360,2012-10-27 00:15:00
8:35 PM,71.6,55.4,57,29.90,10.0,North,5.8,-,N/A,,Clear,10,2012-10-27 00:35:00
8:55 PM,64.4,55.4,73,29.90,10.0,North,3.5,-,N/A,,Clear,10,2012-10-27 00:55:00
9:15 PM,64.4,55.4,73,29.90,10.0,North,3.5,-,N/A,,Clear,10,2012-10-27 01:15:00
9:35 PM,62.6,55.4,77,29.90,10.0,North,4.6,-,N/A,,Clear,10,2012-10-27 01:35:00
10:15 PM,62.6,55.4,77,29.90,10.0,NNE,3.5,-,N/A,,Clear,20,2012-10-27 02:15:00
10:35 PM,62.6,55.4,77,29.90,10.0,NNE,3.5,-,N/A,,Clear,20,2012-10-27 02:35:00
10:55 PM,62.6,55.4,77,29.90,10.0,NNE,3.5,-,N/A,,Clear,20,2012-10-27 02:55:00
11:15 PM,60.8,55.4,82,29.90,10.0,North,3.5,-,N/A,,Clear,360,2012-10-27 03:15:00
11:35 PM,60.8,55.4,82,29.89,4.0,North,3.5,-,N/A,,Haze,10,2012-10-27 03:35:00